Tracking 29892 objects as of 21-Nov-2024
HD Live streaming from Space Station
objects crossing your sky now

STARLINK-2593

Track STARLINK-2593 now!
10-day predictions
STARLINK-2593 is classified as:


NORAD ID: 48404
Int'l Code: 2021-038BD
Perigee: 552.8 km
Apogee: 555.9 km
Inclination: 53.1 °
Period: 95.6 minutes
Semi major axis: 6925 km
RCS: Unknown
Launch date: May 4, 2021
Source: United States (US)
Launch site: AIR FORCE EASTERN TEST RANGE (AFETR)
Your satellite tracking list
Your tracking list is empty




NASA's NSSDC Master Catalog

Two Line Element Set (TLE):
1 48404U 21038BD  24325.35266993  .00003809  00000-0  27445-3 0  9998
2 48404  53.0538 310.9969 0002242  77.2858 282.8381 15.06404967195818
Source of the keplerian elements: AFSPC